Snowfall_Accumulation
0.0 0.0 0.0 0.0 0.0 0.0 0.0 0.0 0.1 0.2 0.0 0.0 0.0 0.0 0.0 0.0 0.0 0.0 0.0 0.0 0.0 0.0 0.0 0.0 0.0 0.0 0.0 0.0 0.0 0.0 0.0 0.0 0.0 0.0 0.0 0.0 0.0 0.0
0.0 0.0 0.0 0.0 0.0 0.0 0.0 0.0 0.0 0.2 0.2 0.0 0.0 0.0 0.0 0.0 0.0 0.0 0.0 0.0 0.0 0.0 0.0 0.0 0.0 0.0 0.0 0.0 0.0 0.0 0.0 0.0 0.0 0.0 0.0 0.0 0.0 0.0
0.0 0.0 0.0 0.0 0.0 0.0 0.0 0.0 0.0 0.1 0.3 0.0 0.0 0.1 0.0 0.0 0.0 0.0 0.0 0.0 0.0 0.1 0.1 0.1 0.1 0.1 0.1 0.1 0.0 0.0 0.0 0.0 0.0 0.0 0.0 0.0 0.0 0.0
0.0 0.0 0.0 0.0 0.0 0.0 0.0 0.0 0.1 0.1 0.5 0.8 0.6 0.5 0.4 0.2 0.2 0.2 0.1 0.1 0.1 0.1 0.1 0.2 0.2 0.2 0.2 0.2 0.2 0.1 0.1 0.1 0.0 0.0 0.0 0.0 0.0 0.0
0.0 0.0 0.1 0.1 0.1 0.1 0.1 0.1 0.3 0.4 0.9 1.3 0.6 0.3 0.3 0.2 0.2 0.1 0.1 0.1 0.0 0.0 0.1 0.1 0.2 0.3 0.4 0.4 0.3 0.2 0.2 0.1 0.1 0.1 0.1 0.0 0.0 0.0
0.1 0.1 0.1 0.1 0.3 0.5 0.7 0.7 1.3 1.2 1.1 1.5 1.5 1.1 0.8 0.5 0.5 0.6 0.5 0.2 0.2 0.1 0.0 0.1 0.1 0.3 0.3 0.2 0.3 0.3 0.3 0.4 0.4 0.4 0.3 0.2 0.2 0.1
0.2 0.3 0.4 0.4 0.3 0.5 0.9 1.3 1.3 1.6 2.2 2.8 2.6 1.7 1.0 0.7 0.6 0.6 0.7 0.4 0.3 0.2 0.2 0.1 0.2 0.2 0.1 0.1 0.1 0.0 0.2 0.4 0.5 0.5 0.5 0.5 0.3 0.2
0.7 0.7 0.9 0.8 0.5 0.5 0.6 0.9 1.7 2.8 3.5 3.9 3.5 2.6 1.4 0.9 0.7 1.0 1.4 2.0 1.5 0.3 0.4 0.2 0.1 0.1 0.1 0.1 0.1 0.2 0.5 0.7 0.8 0.9 0.7 0.7 0.5 0.4
1.1 1.1 1.0 0.9 0.8 0.6 0.6 1.1 1.5 2.1 2.6 2.9 2.8 1.8 1.4 1.1 1.8 2.8 2.9 3.1 2.2 0.6 0.5 0.6 0.1 0.2 0.1 0.1 0.2 0.2 0.4 0.5 0.7 0.8 0.8 0.7 0.6 0.5
0.8 0.7 0.7 0.5 0.5 0.9 1.5 1.9 1.5 1.1 1.0 1.0 1.1 1.1 1.0 1.2 2.3 3.8 3.5 2.5 1.0 0.4 0.4 1.4 0.6 0.3 0.2 0.1 0.1 0.1 0.2 0.4 0.7 0.8 0.9 0.8 0.8 0.6
0.6 0.5 0.6 0.6 0.7 1.9 2.7 2.8 1.6 0.6 0.4 0.5 0.9 0.9 0.9 0.8 1.0 2.4 3.6 4.8 3.5 0.8 0.6 1.2 0.8 0.6 0.2 0.1 0.0 0.2 0.4 0.5 0.6 0.8 0.9 0.8 0.9 0.8
0.6 0.4 0.5 0.7 1.5 2.7 3.0 2.8 1.8 0.8 1.1 0.9 0.5 0.3 0.3 0.1 0.4 2.0 5.9 10.0 7.8 4.0 0.5 1.6 1.9 2.6 3.7 0.7 0.7 0.6 0.4 0.5 0.6 0.6 0.7 0.8 0.8 1.1
0.9 0.5 0.3 1.0 2.1 2.6 2.2 1.3 1.4 2.1 1.7 0.9 0.5 0.3 0.4 0.3 0.4 0.8 2.8 9.0 12.0 7.8 1.8 4.9 6.7 4.4 6.7 3.8 1.1 0.5 0.7 1.0 1.3 1.0 0.7 0.8 1.0 1.6
1.4 0.8 0.8 1.7 1.8 1.3 0.8 0.9 1.6 1.7 1.1 1.2 1.2 1.0 1.2 1.0 1.1 1.2 1.4 2.7 5.6 7.0 4.2 7.6 12.1 8.9 11.1 8.4 3.7 1.6 1.2 1.9 3.3 3.1 2.0 1.5 1.1 1.1
1.3 1.5 1.7 1.4 0.9 0.6 0.6 0.9 1.1 1.6 2.3 3.2 3.2 2.6 1.8 1.9 1.7 2.4 2.4 2.9 3.8 5.1 5.8 6.8 10.1 11.0 12.3 11.6 7.7 5.4 5.7 3.3 3.3 5.3 5.0 3.4 2.3 1.4
1.6 1.5 1.2 0.6 0.6 0.7 0.8 1.2 1.5 2.0 3.6 4.7 4.2 3.3 3.0 3.5 3.8 5.2 6.5 6.8 7.4 6.6 5.9 5.5 6.8 9.7 10.8 8.1 8.7 8.0 8.1 10.0 7.4 7.0 5.6 4.3 2.6 2.0
2.3 1.3 0.9 1.2 1.1 1.3 1.3 1.4 1.9 2.4 3.1 3.8 4.4 4.7 4.5 5.2 6.2 7.1 8.9 9.9 10.3 8.8 7.3 5.4 4.5 5.1 6.7 7.6 8.2 7.1 7.8 10.0 7.5 6.6 5.2 5.6 3.6 1.6
1.9 1.9 1.8 1.9 2.1 1.9 2.2 2.4 2.6 3.0 3.8 5.0 5.5 6.0 6.9 7.6 8.5 8.8 10.3 11.6 11.1 8.9 7.3 5.7 4.9 4.7 4.1 4.1 5.5 7.9 9.1 10.2 8.2 4.4 4.6 7.0 5.6 2.7
1.6 2.2 2.4 2.6 2.6 2.7 3.1 3.6 3.9 3.9 5.3 7.1 7.7 8.3 9.3 9.6 10.4 11.1 11.2 11.1 9.9 8.0 6.7 5.8 6.6 9.9 11.0 7.6 4.4 6.4 11.1 11.6 7.8 6.2 5.2 5.8 6.6 3.5
1.5 2.1 2.5 2.8 3.0 3.4 3.8 4.8 5.4 5.6 6.5 7.9 8.7 9.3 10.7 11.9 12.1 11.7 11.1 10.6 9.8 7.9 5.8 4.4 5.6 9.8 15.2 13.6 10.5 8.2 6.5 10.4 11.6 10.1 5.9 3.3 2.8 2.0
1.8 1.7 1.9 2.5 3.2 3.7 4.3 5.1 6.3 7.5 8.8 10.5 10.9 11.2 11.9 13.6 13.8 11.6 10.3 9.1 8.4 7.5 6.4 4.5 4.1 6.0 9.6 11.8 11.2 9.3 9.2 5.7 6.8 10.9 10.8 9.8 8.3 6.3
2.3 2.4 2.1 2.2 3.2 3.9 4.7 5.7 7.2 8.2 9.4 10.5 11.0 11.3 11.7 12.9 12.8 10.4 8.6 8.1 7.4 6.9 6.1 4.7 3.9 5.0 7.7 11.0 10.4 8.3 8.3 7.2 4.4 3.1 4.5 8.3 15.1 16.4
3.1 3.2 3.2 3.1 3.8 4.4 5.4 6.4 7.8 8.9 9.6 11.2 11.6 11.3 10.9 10.4 8.8 8.0 7.6 7.7 7.8 7.0 6.5 6.0 5.0 5.1 6.1 7.6 8.6 8.1 7.1 6.5 6.2 6.4 7.4 3.4 3.6 4.0